COSMOS 343

Satellite information

Favourite Embed

Satellite Type and Status

PAYLOADIN ORBIT

Key statistics

Satellite COSMOS 343 at a glance.

Uptime

20285

Days in orbit

Revolutions

≈ 12.6

Per day

Orbit

LEO

Low Earth Orbit

Inclination

74.0

Latest

Satellite identification and parameters

Extended collection of information and parameters for COSMOS 343.

Object identification

Identified? True

Debris? False

Object name: COSMOS 343

International designator: 1970-036H

Object number (NORAD): 4390

Object ID (CCSDS): 4390

Country: COMMONWEALTH OF INDEPENDENT STATES (CIS)

Current information (Y/N): Y

RCS size: MEDIUM

Orbital parameters

Period: 114.244 minutes

Inclination: 74.0316 deg

SMA: 7799.193 km

Apoapsis: 1468.147 km

Periapsis: 1373.969 km

RAAN: 1.4938 deg

Eccentricy: 0.00603765

Argument of periapsis: 338.7216 deg

Mean anomaly: 132.1266 deg

Mean motion: 12.6045764 rev/day

Mean motion (dot): 0.00000015 rev/day2

B* drag term: 0.00017880682 1/REarth

Two-line elements (TLE)

Creation date: Nov. 7, 2025, 2:17 a.m.

Reference frame: TEME

Reference center: EARTH

Epoch: Nov. 6, 2025, 9:24 p.m. UTC

TLE line 0: 0 COSMOS 343

TLE line 1: 1 04390U 70036H 25310.89172552 .00000015 00000-0 17881-3 0 9996

TLE line 2: 2 04390 74.0316 1.4938 0060377 338.7216 132.1266 12.60457640555086

Live tracking on map

Real-time ground track for satellite COSMOS 343.

In-orbit conjunctions

There are no conjunctions computed for COSMOS 343, at the moment. Check back to stay up to date, as we update our databases every day.

Go to all conjunctions

Associated space launch

Military communications satellites

COSMOS 343 was lifted into orbit during the mission ‘Kosmos-3M | Strela-1M 1-8’, on board a Kosmos-3M space rocket.

The launch took place on April 25, 1970, 5:09 p.m. from 132/2.

For more information about the launch, click the button.

Launch to space Kosmos-3M | Strela-1M 1-8
Kosmos-3M | Strela-1M 1-8

Agency: N/A

Status: Launch Successful

Launch date: April 25, 1970, 5:09 p.m. UTC

Rocket: Kosmos-3M

Launch pad: 132/2

Location: Plesetsk Cosmodrome, Russian Federation

...

Latest news about this satellite

There are no fresh news available about this satellite. Check back as we update our databases every day.


Newsletter sign-up

Weekly statistics, charts and insights to help you stay on top of the space industry.